Time,TemperatureF,DewpointF,PressureIn,WindDirection,WindDirectionDegrees,WindSpeedMPH,WindSpeedGustMPH,Humidity,HourlyPrecipIn,Conditions,Clouds,dailyrainin,SoftwareType,DateUTC
2013-03-13 00:00:00,56.8,54.8,30.04,West,268,0.0,1.0,93,0.00,,---,0.18,VWS V14.00,2013-03-13 04:00:00,
2013-03-13 00:01:00,56.8,54.8,30.03,West,268,0.0,1.0,93,0.00,,---,0.00,VWS V14.00,2013-03-13 04:01:00,
2013-03-13 00:07:00,56.7,54.7,30.03,North,355,0.0,0.0,93,0.00,,---,0.00,VWS V14.00,2013-03-13 04:07:00,
2013-03-13 00:11:00,56.7,54.7,30.03,WSW,244,0.0,4.0,93,0.00,,---,0.00,VWS V14.00,2013-03-13 04:11:00,
2013-03-13 00:16:00,56.6,54.6,30.03,WSW,244,0.0,4.0,93,0.00,,---,0.00,VWS V14.00,2013-03-13 04:16:00,
2013-03-13 00:21:00,56.5,54.5,30.03,WSW,250,0.0,4.0,93,0.00,,---,0.00,VWS V14.00,2013-03-13 04:21:00,
2013-03-13 00:26:00,56.4,54.4,30.03,NW,307,0.0,4.0,93,0.00,,---,0.00,VWS V14.00,2013-03-13 04:26:00,
2013-03-13 00:30:00,56.3,54.3,30.03,NW,307,0.0,4.0,93,0.00,,---,0.00,VWS V14.00,2013-03-13 04:30:00,
2013-03-13 00:31:00,56.3,54.3,30.03,NW,307,0.0,0.0,93,0.00,,---,0.00,VWS V14.00,2013-03-13 04:31:00,
2013-03-13 00:36:00,56.1,54.1,30.03,NW,307,0.0,0.0,93,0.00,,---,0.00,VWS V14.00,2013-03-13 04:36:00,
2013-03-13 00:42:00,56.0,54.0,30.04,NW,307,0.0,0.0,93,0.00,,---,0.00,VWS V14.00,2013-03-13 04:42:00,
2013-03-13 00:47:00,55.8,53.8,30.04,NW,307,0.0,0.0,93,0.00,,---,0.00,VWS V14.00,2013-03-13 04:47:00,
2013-03-13 00:52:00,55.7,53.7,30.04,NW,307,0.0,0.0,93,0.00,,---,0.00,VWS V14.00,2013-03-13 04:52:00,
2013-03-13 00:57:00,55.5,53.5,30.05,NW,307,0.0,0.0,93,0.00,,---,0.00,VWS V14.00,2013-03-13 04:57:00,
2013-03-13 01:00:00,55.4,53.4,30.05,NW,307,0.0,0.0,93,0.00,,---,0.00,VWS V14.00,2013-03-13 05:00:00,
2013-03-13 01:03:00,55.4,53.4,30.05,NW,307,0.0,0.0,93,0.00,,---,0.00,VWS V14.00,2013-03-13 05:03:00,
2013-03-13 01:08:00,55.3,53.3,30.04,NW,307,0.0,0.0,93,0.00,,---,0.00,VWS V14.00,2013-03-13 05:08:00,
2013-03-13 01:13:00,55.1,53.1,30.04,NW,307,0.0,2.0,93,0.00,,---,0.00,VWS V14.00,2013-03-13 05:13:00,
2013-03-13 01:19:00,55.0,53.0,30.04,NW,307,0.0,2.0,93,0.00,,---,0.00,VWS V14.00,2013-03-13 05:19:00,
2013-03-13 01:24:00,54.8,52.8,30.05,NW,307,0.0,2.0,93,0.00,,---,0.00,VWS V14.00,2013-03-13 05:24:00,
2013-03-13 01:29:00,54.6,52.6,30.05,NW,307,0.0,2.0,93,0.00,,---,0.00,VWS V14.00,2013-03-13 05:29:00,
2013-03-13 01:30:00,54.6,52.6,30.04,NW,307,0.0,2.0,93,0.00,,---,0.00,VWS V14.00,2013-03-13 05:30:00,
2013-03-13 01:34:00,54.5,52.5,30.04,NW,307,0.0,0.0,93,0.00,,---,0.00,VWS V14.00,2013-03-13 05:34:00,
2013-03-13 01:39:00,54.2,52.2,30.04,NW,307,0.0,0.0,93,0.00,,---,0.00,VWS V14.00,2013-03-13 05:39:00,
2013-03-13 01:44:00,54.0,52.0,30.04,NW,307,0.0,0.0,93,0.00,,---,0.00,VWS V14.00,2013-03-13 05:44:00,
2013-03-13 01:50:00,53.8,51.8,30.04,NW,307,0.0,0.0,93,0.00,,---,0.00,VWS V14.00,2013-03-13 05:50:00,
2013-03-13 01:55:00,53.6,51.6,30.04,NW,307,0.0,0.0,93,0.00,,---,0.00,VWS V14.00,2013-03-13 05:55:00,
2013-03-13 02:00:00,53.5,51.5,30.04,NW,307,0.0,0.0,93,0.00,,---,0.00,VWS V14.00,2013-03-13 06:00:00,
2013-03-13 02:05:00,53.4,51.7,30.05,NW,307,0.0,0.0,94,0.00,,---,0.00,VWS V14.00,2013-03-13 06:05:00,
2013-03-13 02:10:00,53.3,51.3,30.05,NW,307,0.0,0.0,93,0.00,,---,0.00,VWS V14.00,2013-03-13 06:10:00,
2013-03-13 02:16:00,53.1,51.1,30.05,NW,307,0.0,0.0,93,0.00,,---,0.00,VWS V14.00,2013-03-13 06:16:00,
2013-03-13 02:21:00,52.9,50.9,30.05,NW,307,0.0,0.0,93,0.00,,---,0.00,VWS V14.00,2013-03-13 06:21:00,
2013-03-13 02:26:00,52.7,50.7,30.05,NW,307,0.0,0.0,93,0.00,,---,0.00,VWS V14.00,2013-03-13 06:26:00,
2013-03-13 02:30:00,52.4,50.4,30.05,NW,307,0.0,0.0,93,0.00,,---,0.00,VWS V14.00,2013-03-13 06:30:00,
2013-03-13 02:31:00,52.4,50.4,30.04,NW,307,0.0,0.0,93,0.00,,---,0.00,VWS V14.00,2013-03-13 06:31:00,
2013-03-13 02:37:00,52.2,50.2,30.04,NW,307,0.0,0.0,93,0.00,,---,0.00,VWS V14.00,2013-03-13 06:37:00,
2013-03-13 02:42:00,51.9,49.9,30.05,NW,307,0.0,0.0,93,0.00,,---,0.00,VWS V14.00,2013-03-13 06:42:00,
2013-03-13 02:47:00,51.6,49.7,30.05,NW,307,0.0,0.0,93,0.00,,---,0.00,VWS V14.00,2013-03-13 06:47:00,
2013-03-13 02:52:00,51.4,49.5,30.05,NW,307,0.0,0.0,93,0.00,,---,0.00,VWS V14.00,2013-03-13 06:52:00,
2013-03-13 02:58:00,51.2,49.2,30.05,NW,307,0.0,0.0,93,0.00,,---,0.00,VWS V14.00,2013-03-13 06:58:00,
2013-03-13 03:00:00,51.1,49.2,30.04,NW,307,0.0,0.0,93,0.00,,---,0.00,VWS V14.00,2013-03-13 07:00:00,
2013-03-13 03:03:00,51.0,49.0,30.04,NW,307,0.0,0.0,93,0.00,,---,0.00,VWS V14.00,2013-03-13 07:03:00,
2013-03-13 03:08:00,50.9,49.0,30.04,NW,307,0.0,0.0,93,0.00,,---,0.00,VWS V14.00,2013-03-13 07:08:00,
2013-03-13 03:13:00,50.8,48.8,30.04,NW,307,0.0,0.0,93,0.00,,---,0.00,VWS V14.00,2013-03-13 07:13:00,
2013-03-13 03:30:00,50.7,48.8,30.04,North,0,0.0,0.0,93,0.00,,---,0.00,VWS V14.00,2013-03-13 07:30:00,
2013-03-13 04:00:00,50.1,48.2,30.04,NW,315,0.0,1.0,93,0.00,,---,0.00,VWS V14.00,2013-03-13 08:00:00,
2013-03-13 04:30:00,49.4,47.2,30.04,NW,315,0.0,0.0,92,0.00,,---,0.00,VWS V14.00,2013-03-13 08:30:00,
2013-03-13 05:00:00,48.6,46.4,30.05,NW,315,0.0,0.0,92,0.00,,---,0.00,VWS V14.00,2013-03-13 09:00:00,
2013-03-13 05:30:00,48.1,45.6,30.06,NW,315,0.0,0.0,91,0.00,,---,0.00,VWS V14.00,2013-03-13 09:30:00,
2013-03-13 06:00:00,48.6,44.9,30.07,NW,315,0.0,0.0,87,0.00,,---,0.00,VWS V14.00,2013-03-13 10:00:00,
2013-03-13 06:30:00,48.6,44.3,30.09,NNW,338,0.0,3.0,85,0.00,,---,0.00,VWS V14.00,2013-03-13 10:30:00,
2013-03-13 07:04:00,48.3,43.7,30.10,NW,315,0.0,0.0,84,0.00,,---,0.00,VWS V14.00,2013-03-13 11:04:00,
2013-03-13 07:10:00,48.2,43.3,30.10,NW,315,0.0,0.0,83,0.00,,---,0.00,VWS V14.00,2013-03-13 11:10:00,
2013-03-13 07:15:00,48.1,43.2,30.10,NW,320,0.0,3.0,83,0.00,,---,0.00,VWS V14.00,2013-03-13 11:15:00,
2013-03-13 07:20:00,48.1,43.2,30.11,NW,319,1.0,3.0,83,0.00,,---,0.00,VWS V14.00,2013-03-13 11:20:00,
2013-03-13 07:25:00,48.2,43.3,30.11,NW,319,0.0,3.0,83,0.00,,---,0.00,VWS V14.00,2013-03-13 11:25:00,
2013-03-13 07:30:00,48.2,44.5,30.11,NW,319,0.0,3.0,87,0.00,,---,0.00,VWS V14.00,2013-03-13 11:30:00,
2013-03-13 07:36:00,48.2,44.5,30.11,NW,319,0.0,0.0,87,0.00,,---,0.00,VWS V14.00,2013-03-13 11:36:00,
2013-03-13 07:41:00,48.1,43.2,30.11,NW,320,0.0,0.0,83,0.00,,---,0.00,VWS V14.00,2013-03-13 11:41:00,
2013-03-13 07:46:00,48.2,43.3,30.11,NW,320,0.0,2.0,83,0.00,,---,0.00,VWS V14.00,2013-03-13 11:46:00,
2013-03-13 07:52:00,48.3,43.1,30.12,NW,319,0.0,3.0,82,0.00,,---,0.00,VWS V14.00,2013-03-13 11:52:00,
2013-03-13 07:57:00,48.5,43.3,30.12,NW,304,0.0,3.0,82,0.00,,---,0.00,VWS V14.00,2013-03-13 11:57:00,
2013-03-13 08:00:00,48.6,43.4,30.12,NW,304,0.0,3.0,82,0.00,,---,0.00,VWS V14.00,2013-03-13 12:00:00,
2013-03-13 08:02:00,48.6,43.4,30.12,NW,304,0.0,0.0,82,0.00,,---,0.00,VWS V14.00,2013-03-13 12:02:00,
2013-03-13 08:07:00,48.7,43.1,30.12,NW,304,0.0,1.0,81,0.00,,---,0.00,VWS V14.00,2013-03-13 12:07:00,
2013-03-13 08:12:00,48.9,43.3,30.12,NNW,327,0.0,6.0,81,0.00,,---,0.00,VWS V14.00,2013-03-13 12:12:00,
2013-03-13 08:17:00,49.1,43.5,30.13,WNW,302,0.0,6.0,81,0.00,,---,0.00,VWS V14.00,2013-03-13 12:17:00,
2013-03-13 08:23:00,49.2,43.3,30.13,NW,310,0.0,6.0,80,0.00,,---,0.00,VWS V14.00,2013-03-13 12:23:00,
2013-03-13 08:28:00,49.4,43.5,30.13,NW,322,0.0,6.0,80,0.00,,---,0.00,VWS V14.00,2013-03-13 12:28:00,
2013-03-13 08:30:00,49.5,43.6,30.13,NW,322,0.0,6.0,80,0.00,,---,0.00,VWS V14.00,2013-03-13 12:30:00,
2013-03-13 08:33:00,49.5,43.6,30.13,NW,322,0.0,0.0,80,0.00,,---,0.00,VWS V14.00,2013-03-13 12:33:00,
2013-03-13 08:38:00,49.8,43.6,30.13,NNW,328,0.0,4.0,79,0.00,,---,0.00,VWS V14.00,2013-03-13 12:38:00,
2013-03-13 08:43:00,50.1,43.5,30.14,NNW,329,3.0,6.0,78,0.00,,---,0.00,VWS V14.00,2013-03-13 12:43:00,
2013-03-13 08:48:00,50.4,43.5,30.14,NNW,329,0.0,6.0,77,0.00,,---,0.00,VWS V14.00,2013-03-13 12:48:00,
2013-03-13 08:54:00,50.7,43.8,30.14,NW,308,0.0,6.0,77,0.00,,---,0.00,VWS V14.00,2013-03-13 12:54:00,
2013-03-13 08:59:00,50.8,43.5,30.14,NNW,335,0.0,6.0,76,0.00,,---,0.00,VWS V14.00,2013-03-13 12:59:00,
2013-03-13 09:00:00,50.9,43.6,30.14,NW,321,4.0,6.0,76,0.00,,---,0.00,VWS V14.00,2013-03-13 13:00:00,
2013-03-13 09:04:00,51.0,43.4,30.15,NNW,332,2.0,5.0,75,0.00,,---,0.00,VWS V14.00,2013-03-13 13:04:00,
2013-03-13 09:09:00,51.3,43.7,30.15,North,349,0.0,7.0,75,0.00,,---,0.00,VWS V14.00,2013-03-13 13:09:00,
2013-03-13 09:14:00,51.6,43.2,30.15,North,355,0.0,7.0,73,0.00,,---,0.00,VWS V14.00,2013-03-13 13:14:00,
2013-03-13 09:19:00,52.0,43.6,30.15,NW,321,0.0,7.0,73,0.00,,---,0.00,VWS V14.00,2013-03-13 13:19:00,
2013-03-13 09:24:00,52.3,43.2,30.15,NNW,340,3.0,9.0,71,0.00,,---,0.00,VWS V14.00,2013-03-13 13:24:00,
2013-03-13 09:30:00,52.7,43.6,30.15,West,279,9.0,10.0,71,0.00,,---,0.00,VWS V14.00,2013-03-13 13:30:00,
2013-03-13 09:35:00,53.1,43.6,30.15,WNW,296,4.0,6.0,70,0.00,,---,0.00,VWS V14.00,2013-03-13 13:35:00,
2013-03-13 09:40:00,53.4,43.5,30.15,WNW,296,0.0,6.0,69,0.00,,---,0.00,VWS V14.00,2013-03-13 13:40:00,
2013-03-13 09:46:00,53.9,43.2,30.15,NW,325,0.0,6.0,67,0.00,,---,0.00,VWS V14.00,2013-03-13 13:46:00,
2013-03-13 09:51:00,54.4,43.3,30.15,North,360,1.0,6.0,66,0.00,,---,0.00,VWS V14.00,2013-03-13 13:51:00,
2013-03-13 09:57:00,54.9,43.8,30.16,NNE,13,0.0,6.0,66,0.00,,---,0.00,VWS V14.00,2013-03-13 13:57:00,
2013-03-13 10:00:00,55.3,43.8,30.16,NNW,336,0.0,6.0,65,0.00,,---,0.00,VWS V14.00,2013-03-13 14:00:00,
2013-03-13 10:02:00,55.4,43.8,30.16,NW,319,0.0,0.0,65,0.00,,---,0.00,VWS V14.00,2013-03-13 14:02:00,
2013-03-13 10:07:00,55.8,43.4,30.16,NNE,22,0.0,6.0,63,0.00,,---,0.00,VWS V14.00,2013-03-13 14:07:00,
2013-03-13 10:12:00,56.1,42.8,30.16,North,360,0.0,8.0,61,0.00,,---,0.00,VWS V14.00,2013-03-13 14:12:00,
2013-03-13 10:17:00,56.5,42.8,30.16,NNW,338,0.0,8.0,60,0.00,,---,0.00,VWS V14.00,2013-03-13 14:17:00,
2013-03-13 10:22:00,56.9,42.7,30.16,NNW,336,0.0,8.0,59,0.00,,---,0.00,VWS V14.00,2013-03-13 14:22:00,
2013-03-13 10:27:00,57.3,43.1,30.16,NNE,17,4.0,11.0,59,0.00,,---,0.00,VWS V14.00,2013-03-13 14:27:00,
2013-03-13 10:30:00,57.6,42.0,30.16,NW,322,0.0,11.0,56,0.00,,---,0.00,VWS V14.00,2013-03-13 14:30:00,
2013-03-13 10:32:00,57.8,42.7,30.16,NNW,333,0.0,0.0,57,0.00,,---,0.00,VWS V14.00,2013-03-13 14:32:00,
2013-03-13 10:38:00,58.3,42.7,30.16,WNW,301,4.0,5.0,56,0.00,,---,0.00,VWS V14.00,2013-03-13 14:38:00,
2013-03-13 10:43:00,58.7,42.1,30.16,NNE,21,0.0,6.0,54,0.00,,---,0.00,VWS V14.00,2013-03-13 14:43:00,
2013-03-13 10:48:00,59.0,42.4,30.16,NNW,339,0.0,7.0,54,0.00,,---,0.00,VWS V14.00,2013-03-13 14:48:00,
2013-03-13 10:53:00,59.3,42.7,30.16,NW,309,2.0,7.0,54,0.00,,---,0.00,VWS V14.00,2013-03-13 14:53:00,
2013-03-13 10:58:00,59.9,42.7,30.16,NW,316,0.0,7.0,53,0.00,,---,0.00,VWS V14.00,2013-03-13 14:58:00,
2013-03-13 11:00:00,60.2,42.5,30.16,NNW,344,0.0,7.0,52,0.00,,---,0.00,VWS V14.00,2013-03-13 15:00:00,
2013-03-13 11:03:00,60.4,41.7,30.16,NW,304,0.0,5.0,50,0.00,,---,0.00,VWS V14.00,2013-03-13 15:03:00,
2013-03-13 11:09:00,61.0,42.2,30.16,NNW,328,0.0,5.0,50,0.00,,---,0.00,VWS V14.00,2013-03-13 15:09:00,
2013-03-13 11:14:00,61.6,42.3,30.17,North,5,0.0,5.0,49,0.00,,---,0.00,VWS V14.00,2013-03-13 15:14:00,
2013-03-13 11:19:00,61.9,42.5,30.17,NW,317,0.0,5.0,49,0.00,,---,0.00,VWS V14.00,2013-03-13 15:19:00,
2013-03-13 11:24:00,62.3,40.1,30.17,NW,317,0.0,9.0,44,0.00,,---,0.00,VWS V14.00,2013-03-13 15:24:00,
2013-03-13 11:29:00,62.8,40.0,30.17,WNW,291,0.0,9.0,43,0.00,,---,0.00,VWS V14.00,2013-03-13 15:29:00,
2013-03-13 11:30:00,62.9,40.1,30.17,WNW,299,0.0,9.0,43,0.00,,---,0.00,VWS V14.00,2013-03-13 15:30:00,
2013-03-13 11:34:00,63.2,39.8,30.17,NNW,327,0.0,6.0,42,0.00,,---,0.00,VWS V14.00,2013-03-13 15:34:00,
2013-03-13 11:39:00,63.7,40.2,30.16,NW,306,0.0,7.0,42,0.00,,---,0.00,VWS V14.00,2013-03-13 15:39:00,
2013-03-13 11:45:00,64.4,40.2,30.16,WSW,254,0.0,7.0,41,0.00,,---,0.00,VWS V14.00,2013-03-13 15:45:00,
2013-03-13 11:50:00,65.0,40.1,30.17,NW,304,0.0,7.0,40,0.00,,---,0.00,VWS V14.00,2013-03-13 15:50:00,
2013-03-13 11:55:00,65.4,39.2,30.17,NNW,340,0.0,7.0,38,0.00,,---,0.00,VWS V14.00,2013-03-13 15:55:00,
2013-03-13 12:00:00,65.9,38.9,30.17,NW,319,0.0,7.0,37,0.00,,---,0.00,VWS V14.00,2013-03-13 16:00:00,
2013-03-13 12:06:00,66.2,38.5,30.17,WNW,300,0.0,10.0,36,0.00,,---,0.00,VWS V14.00,2013-03-13 16:06:00,
2013-03-13 12:11:00,66.7,38.9,30.17,NNW,342,0.0,10.0,36,0.00,,---,0.00,VWS V14.00,2013-03-13 16:11:00,
2013-03-13 12:16:00,67.3,40.2,30.16,NW,319,0.0,10.0,37,0.00,,---,0.00,VWS V14.00,2013-03-13 16:16:00,
2013-03-13 12:21:00,67.7,37.6,30.17,WNW,284,0.0,12.0,33,0.00,,---,0.00,VWS V14.00,2013-03-13 16:21:00,
2013-03-13 12:26:00,67.9,38.5,30.17,North,9,0.0,12.0,34,0.00,,---,0.00,VWS V14.00,2013-03-13 16:26:00,
2013-03-13 12:30:00,68.4,39.0,30.17,North,350,0.0,12.0,34,0.00,,---,0.00,VWS V14.00,2013-03-13 16:30:00,
2013-03-13 12:31:00,68.4,39.0,30.17,North,350,0.0,0.0,34,0.00,,---,0.00,VWS V14.00,2013-03-13 16:31:00,
2013-03-13 12:37:00,68.7,38.5,30.17,WNW,299,0.0,7.0,33,0.00,,---,0.00,VWS V14.00,2013-03-13 16:37:00,
2013-03-13 12:42:00,68.7,38.5,30.17,WNW,303,4.0,7.0,33,0.00,,---,0.00,VWS V14.00,2013-03-13 16:42:00,
2013-03-13 12:47:00,69.0,38.7,30.16,North,355,4.0,9.0,33,0.00,,---,0.00,VWS V14.00,2013-03-13 16:47:00,
2013-03-13 12:52:00,69.5,38.4,30.16,North,360,3.0,9.0,32,0.00,,---,0.00,VWS V14.00,2013-03-13 16:52:00,
2013-03-13 12:57:00,70.0,39.6,30.16,NNE,25,0.0,9.0,33,0.00,,---,0.00,VWS V14.00,2013-03-13 16:57:00,
2013-03-13 13:00:00,70.4,40.0,30.16,NE,38,0.0,9.0,33,0.00,,---,0.00,VWS V14.00,2013-03-13 17:00:00,
2013-03-13 13:02:00,70.4,40.0,30.16,North,11,0.0,2.0,33,0.00,,---,0.00,VWS V14.00,2013-03-13 17:02:00,
2013-03-13 13:07:00,70.7,39.4,30.16,North,360,3.0,6.0,32,0.00,,---,0.00,VWS V14.00,2013-03-13 17:07:00,
2013-03-13 13:13:00,70.9,38.8,30.16,NW,304,0.0,6.0,31,0.00,,---,0.00,VWS V14.00,2013-03-13 17:13:00,
2013-03-13 13:18:00,70.7,36.9,30.16,NNW,344,0.0,10.0,29,0.00,,---,0.00,VWS V14.00,2013-03-13 17:18:00,
2013-03-13 13:23:00,70.3,39.1,30.16,NNW,348,0.0,10.0,32,0.00,,---,0.00,VWS V14.00,2013-03-13 17:23:00,
2013-03-13 13:28:00,70.2,38.2,30.16,North,355,0.0,10.0,31,0.00,,---,0.00,VWS V14.00,2013-03-13 17:28:00,
2013-03-13 13:30:00,70.5,39.2,30.15,NNW,343,0.0,10.0,32,0.00,,---,0.00,VWS V14.00,2013-03-13 17:30:00,
2013-03-13 13:33:00,70.8,39.5,30.15,NNW,340,2.0,5.0,32,0.00,,---,0.00,VWS V14.00,2013-03-13 17:33:00,
2013-03-13 13:38:00,71.2,38.2,30.15,NNW,344,0.0,10.0,30,0.00,,---,0.00,VWS V14.00,2013-03-13 17:38:00,
2013-03-13 13:43:00,71.5,39.3,30.15,NNE,32,0.0,10.0,31,0.00,,---,0.00,VWS V14.00,2013-03-13 17:43:00,
2013-03-13 13:49:00,71.6,40.2,30.15,NW,321,0.0,10.0,32,0.00,,---,0.00,VWS V14.00,2013-03-13 17:49:00,
2013-03-13 13:54:00,71.9,38.0,30.15,NNW,332,0.0,10.0,29,0.00,,---,0.00,VWS V14.00,2013-03-13 17:54:00,
2013-03-13 13:59:00,71.9,37.1,30.14,NNE,13,0.0,10.0,28,0.00,,---,0.00,VWS V14.00,2013-03-13 17:59:00,
2013-03-13 14:00:00,71.8,38.7,30.14,North,351,0.0,10.0,30,0.00,,---,0.00,VWS V14.00,2013-03-13 18:00:00,
2013-03-13 14:04:00,71.9,38.0,30.14,NNE,19,0.0,1.0,29,0.00,,---,0.00,VWS V14.00,2013-03-13 18:04:00,
2013-03-13 14:09:00,72.5,38.5,30.14,North,360,0.0,7.0,29,0.00,,---,0.00,VWS V14.00,2013-03-13 18:09:00,
2013-03-13 14:15:00,73.1,38.1,30.14,NW,315,0.0,7.0,28,0.00,,---,0.00,VWS V14.00,2013-03-13 18:15:00,
2013-03-13 14:20:00,72.9,36.0,30.14,NNW,334,0.0,7.0,26,0.00,,---,0.00,VWS V14.00,2013-03-13 18:20:00,
2013-03-13 14:25:00,72.6,37.7,30.13,North,355,0.0,7.0,28,0.00,,---,0.00,VWS V14.00,2013-03-13 18:25:00,
2013-03-13 14:30:00,72.4,37.5,30.12,NW,323,0.0,7.0,28,0.00,,---,0.00,VWS V14.00,2013-03-13 18:30:00,
2013-03-13 14:35:00,72.8,38.7,30.12,ESE,117,2.0,2.0,29,0.00,,---,0.00,VWS V14.00,2013-03-13 18:35:00,
2013-03-13 14:41:00,72.5,37.6,30.12,NW,321,0.0,7.0,28,0.00,,---,0.00,VWS V14.00,2013-03-13 18:41:00,
2013-03-13 14:46:00,72.8,38.7,30.11,North,360,0.0,7.0,29,0.00,,---,0.00,VWS V14.00,2013-03-13 18:46:00,
2013-03-13 14:52:00,72.7,37.8,30.11,North,360,0.0,7.0,28,0.00,,---,0.00,VWS V14.00,2013-03-13 18:52:00,
2013-03-13 14:57:00,72.7,38.6,30.11,NW,322,2.0,7.0,29,0.00,,---,0.00,VWS V14.00,2013-03-13 18:57:00,
2013-03-13 15:00:00,73.2,39.1,30.11,NNW,348,0.0,7.0,29,0.00,,---,0.00,VWS V14.00,2013-03-13 19:00:00,
2013-03-13 15:02:00,73.3,39.2,30.11,WNW,292,2.0,6.0,29,0.00,,---,0.00,VWS V14.00,2013-03-13 19:02:00,
2013-03-13 15:08:00,73.5,37.5,30.10,North,5,0.0,6.0,27,0.00,,---,0.00,VWS V14.00,2013-03-13 19:08:00,
2013-03-13 15:13:00,73.6,37.6,30.10,NNW,342,0.0,7.0,27,0.00,,---,0.00,VWS V14.00,2013-03-13 19:13:00,
2013-03-13 15:18:00,73.8,39.6,30.10,NNW,337,0.0,7.0,29,0.00,,---,0.00,VWS V14.00,2013-03-13 19:18:00,
2013-03-13 15:23:00,74.6,38.5,30.10,SSW,200,0.0,7.0,27,0.00,,---,0.00,VWS V14.00,2013-03-13 19:23:00,
2013-03-13 15:28:00,75.0,38.8,30.09,West,279,0.0,7.0,27,0.00,,---,0.00,VWS V14.00,2013-03-13 19:28:00,
2013-03-13 15:30:00,75.1,38.9,30.09,WNW,298,0.0,7.0,27,0.00,,---,0.00,VWS V14.00,2013-03-13 19:30:00,
2013-03-13 15:33:00,75.2,38.0,30.09,NNW,340,0.0,4.0,26,0.00,,---,0.00,VWS V14.00,2013-03-13 19:33:00,
2013-03-13 15:39:00,74.7,37.6,30.09,NW,306,0.0,4.0,26,0.00,,---,0.00,VWS V14.00,2013-03-13 19:39:00,
2013-03-13 15:44:00,74.6,37.5,30.08,NNW,340,0.0,4.0,26,0.00,,---,0.00,VWS V14.00,2013-03-13 19:44:00,
2013-03-13 15:49:00,75.5,39.2,30.08,SSW,206,5.0,7.0,27,0.00,,---,0.00,VWS V14.00,2013-03-13 19:49:00,
2013-03-13 15:54:00,75.6,38.3,30.08,WNW,284,0.0,7.0,26,0.00,,---,0.00,VWS V14.00,2013-03-13 19:54:00,
2013-03-13 15:59:00,76.1,38.8,30.08,WNW,302,0.0,7.0,26,0.00,,---,0.00,VWS V14.00,2013-03-13 19:59:00,
2013-03-13 16:00:00,76.0,37.7,30.08,WSW,242,0.0,7.0,25,0.00,,---,0.00,VWS V14.00,2013-03-13 20:00:00,
2013-03-13 16:04:00,75.9,37.6,30.08,West,281,0.0,6.0,25,0.00,,---,0.00,VWS V14.00,2013-03-13 20:04:00,
2013-03-13 16:09:00,75.4,38.2,30.07,NW,313,0.0,6.0,26,0.00,,---,0.00,VWS V14.00,2013-03-13 20:09:00,
2013-03-13 16:15:00,75.3,37.1,30.08,NNW,345,0.0,9.0,25,0.00,,---,0.00,VWS V14.00,2013-03-13 20:15:00,
2013-03-13 16:20:00,75.1,37.9,30.07,NNE,23,0.0,9.0,26,0.00,,---,0.00,VWS V14.00,2013-03-13 20:20:00,
2013-03-13 16:25:00,75.4,37.2,30.07,NNW,336,1.0,9.0,25,0.00,,---,0.00,VWS V14.00,2013-03-13 20:25:00,
2013-03-13 16:30:00,75.8,35.4,30.07,WSW,241,0.0,9.0,23,0.00,,---,0.00,VWS V14.00,2013-03-13 20:30:00,
2013-03-13 16:35:00,76.0,35.6,30.07,West,259,0.0,5.0,23,0.00,,---,0.00,VWS V14.00,2013-03-13 20:35:00,
2013-03-13 16:41:00,76.0,35.6,30.06,NW,309,0.0,7.0,23,0.00,,---,0.00,VWS V14.00,2013-03-13 20:41:00,
2013-03-13 16:46:00,75.7,36.4,30.06,North,350,5.0,14.0,24,0.00,,---,0.00,VWS V14.00,2013-03-13 20:46:00,
2013-03-13 16:52:00,75.3,35.0,30.06,NW,309,0.0,14.0,23,0.00,,---,0.00,VWS V14.00,2013-03-13 20:52:00,
2013-03-13 16:57:00,74.8,33.5,30.06,NNE,18,0.0,14.0,22,0.00,,---,0.00,VWS V14.00,2013-03-13 20:57:00,
2013-03-13 17:00:00,74.6,35.5,30.06,NW,306,2.0,14.0,24,0.00,,---,0.00,VWS V14.00,2013-03-13 21:00:00,
2013-03-13 17:02:00,74.6,35.5,30.06,WNW,292,0.0,2.0,24,0.00,,---,0.00,VWS V14.00,2013-03-13 21:02:00,
2013-03-13 17:07:00,74.9,34.6,30.06,North,351,0.0,8.0,23,0.00,,---,0.00,VWS V14.00,2013-03-13 21:07:00,
2013-03-13 17:12:00,75.0,34.7,30.06,WSW,243,0.0,8.0,23,0.00,,---,0.00,VWS V14.00,2013-03-13 21:12:00,
2013-03-13 17:17:00,74.9,34.6,30.06,NW,318,0.0,9.0,23,0.00,,---,0.00,VWS V14.00,2013-03-13 21:17:00,
2013-03-13 17:22:00,74.9,34.6,30.06,WSW,257,3.0,10.0,23,0.00,,---,0.00,VWS V14.00,2013-03-13 21:22:00,
2013-03-13 17:27:00,74.5,34.3,30.06,WSW,248,0.0,11.0,23,0.00,,---,0.00,VWS V14.00,2013-03-13 21:27:00,
2013-03-13 17:30:00,74.3,34.1,30.06,NNW,333,0.0,11.0,23,0.00,,---,0.00,VWS V14.00,2013-03-13 21:30:00,
2013-03-13 17:33:00,74.2,35.1,30.06,WNW,290,3.0,3.0,24,0.00,,---,0.00,VWS V14.00,2013-03-13 21:33:00,
2013-03-13 17:38:00,73.8,34.8,30.06,NE,36,3.0,10.0,24,0.00,,---,0.00,VWS V14.00,2013-03-13 21:38:00,
2013-03-13 17:43:00,73.8,35.8,30.06,NW,310,5.0,10.0,25,0.00,,---,0.00,VWS V14.00,2013-03-13 21:43:00,
2013-03-13 17:48:00,74.0,35.0,30.06,West,279,0.0,10.0,24,0.00,,---,0.00,VWS V14.00,2013-03-13 21:48:00,
2013-03-13 17:53:00,73.9,34.9,30.06,South,186,0.0,10.0,24,0.00,,---,0.00,VWS V14.00,2013-03-13 21:53:00,
2013-03-13 17:59:00,73.4,34.5,30.06,WNW,296,0.0,10.0,24,0.00,,---,0.00,VWS V14.00,2013-03-13 21:59:00,
2013-03-13 18:00:00,73.1,34.2,30.06,SSE,168,0.0,10.0,24,0.00,,---,0.00,VWS V14.00,2013-03-13 22:00:00,
2013-03-13 18:04:00,73.0,34.1,30.06,WSW,246,0.0,1.0,24,0.00,,---,0.00,VWS V14.00,2013-03-13 22:04:00,
2013-03-13 18:09:00,72.7,33.9,30.06,NW,310,1.0,2.0,24,0.00,,---,0.00,VWS V14.00,2013-03-13 22:09:00,
2013-03-13 18:14:00,72.4,34.6,30.06,West,279,0.0,5.0,25,0.00,,---,0.00,VWS V14.00,2013-03-13 22:14:00,
2013-03-13 18:19:00,72.1,33.3,30.06,West,268,0.0,7.0,24,0.00,,---,0.00,VWS V14.00,2013-03-13 22:19:00,
2013-03-13 18:25:00,71.9,34.2,30.06,West,279,0.0,7.0,25,0.00,,---,0.00,VWS V14.00,2013-03-13 22:25:00,
2013-03-13 18:30:00,71.9,34.2,30.06,WNW,295,1.0,7.0,25,0.00,,---,0.00,VWS V14.00,2013-03-13 22:30:00,
2013-03-13 18:35:00,71.8,34.1,30.06,WNW,302,0.0,1.0,25,0.00,,---,0.00,VWS V14.00,2013-03-13 22:35:00,
2013-03-13 18:40:00,71.6,34.9,30.06,WNW,302,0.0,1.0,26,0.00,,---,0.00,VWS V14.00,2013-03-13 22:40:00,
2013-03-13 18:45:00,71.5,33.9,30.06,West,274,0.0,1.0,25,0.00,,---,0.00,VWS V14.00,2013-03-13 22:45:00,
2013-03-13 18:50:00,71.3,33.7,30.06,North,360,0.0,4.0,25,0.00,,---,0.00,VWS V14.00,2013-03-13 22:50:00,
2013-03-13 18:56:00,71.1,34.5,30.06,West,266,0.0,4.0,26,0.00,,---,0.00,VWS V14.00,2013-03-13 22:56:00,
2013-03-13 19:00:00,70.8,35.2,30.06,West,265,0.0,4.0,27,0.00,,---,0.00,VWS V14.00,2013-03-13 23:00:00,
2013-03-13 19:01:00,70.8,35.2,30.06,West,265,0.0,4.0,27,0.00,,---,0.00,VWS V14.00,2013-03-13 23:01:00,
2013-03-13 19:06:00,70.5,34.9,30.06,SW,232,0.0,1.0,27,0.00,,---,0.00,VWS V14.00,2013-03-13 23:06:00,
2013-03-13 19:12:00,70.1,35.5,30.06,SW,236,0.0,1.0,28,0.00,,---,0.00,VWS V14.00,2013-03-13 23:12:00,
2013-03-13 19:17:00,69.6,35.1,30.06,WNW,289,0.0,1.0,28,0.00,,---,0.00,VWS V14.00,2013-03-13 23:17:00,
2013-03-13 19:22:00,69.1,34.7,30.07,West,279,0.0,1.0,28,0.00,,---,0.00,VWS V14.00,2013-03-13 23:22:00,
2013-03-13 19:27:00,68.6,35.1,30.07,West,279,0.0,1.0,29,0.00,,---,0.00,VWS V14.00,2013-03-13 23:27:00,
2013-03-13 19:30:00,68.3,34.8,30.07,West,279,0.0,1.0,29,0.00,,---,0.00,VWS V14.00,2013-03-13 23:30:00,
2013-03-13 19:32:00,68.1,34.7,30.07,West,279,0.0,0.0,29,0.00,,---,0.00,VWS V14.00,2013-03-13 23:32:00,
2013-03-13 19:38:00,67.5,35.0,30.07,West,279,0.0,0.0,30,0.00,,---,0.00,VWS V14.00,2013-03-13 23:38:00,
2013-03-13 19:43:00,66.9,34.5,30.07,West,279,0.0,0.0,30,0.00,,---,0.00,VWS V14.00,2013-03-13 23:43:00,
2013-03-13 19:48:00,66.3,34.8,30.07,West,279,0.0,0.0,31,0.00,,---,0.00,VWS V14.00,2013-03-13 23:48:00,
2013-03-13 19:53:00,65.6,35.0,30.07,West,279,0.0,0.0,32,0.00,,---,0.00,VWS V14.00,2013-03-13 23:53:00,
2013-03-13 19:58:00,64.9,35.1,30.07,West,279,0.0,0.0,33,0.00,,---,0.00,VWS V14.00,2013-03-13 23:58:00,
2013-03-13 20:00:00,64.6,35.6,30.08,West,279,0.0,0.0,34,0.00,,---,0.00,VWS V14.00,2013-03-14 00:00:00,
2013-03-13 20:04:00,64.3,35.4,30.07,West,279,0.0,0.0,34,0.00,,---,0.00,VWS V14.00,2013-03-14 00:04:00,
2013-03-13 20:09:00,63.8,35.7,30.08,West,279,0.0,0.0,35,0.00,,---,0.00,VWS V14.00,2013-03-14 00:09:00,
2013-03-13 20:14:00,63.3,35.2,30.08,West,279,0.0,0.0,35,0.00,,---,0.00,VWS V14.00,2013-03-14 00:14:00,
2013-03-13 20:19:00,62.7,35.4,30.08,West,279,0.0,0.0,36,0.00,,---,0.00,VWS V14.00,2013-03-14 00:19:00,
2013-03-13 20:24:00,62.2,34.9,30.08,West,279,0.0,0.0,36,0.00,,---,0.00,VWS V14.00,2013-03-14 00:24:00,
2013-03-13 20:29:00,61.6,35.8,30.09,West,279,0.0,0.0,38,0.00,,---,0.00,VWS V14.00,2013-03-14 00:29:00,
2013-03-13 20:30:00,61.4,36.2,30.09,West,279,0.0,0.0,39,0.00,,---,0.00,VWS V14.00,2013-03-14 00:30:00,
2013-03-13 20:35:00,61.1,36.6,30.10,West,279,0.0,0.0,40,0.00,,---,0.00,VWS V14.00,2013-03-14 00:35:00,
2013-03-13 20:40:00,60.8,35.7,30.10,West,279,0.0,0.0,39,0.00,,---,0.00,VWS V14.00,2013-03-14 00:40:00,
2013-03-13 20:45:00,60.7,36.9,30.11,NNW,334,0.0,0.0,41,0.00,,---,0.00,VWS V14.00,2013-03-14 00:45:00,
2013-03-13 20:50:00,60.6,38.0,30.11,NNW,335,0.0,0.0,43,0.00,,---,0.00,VWS V14.00,2013-03-14 00:50:00,
2013-03-13 20:56:00,60.4,38.4,30.12,NNW,335,0.0,0.0,44,0.00,,---,0.00,VWS V14.00,2013-03-14 00:56:00,
2013-03-13 21:00:00,60.0,39.2,30.12,NNW,334,0.0,0.0,46,0.00,,---,0.00,VWS V14.00,2013-03-14 01:00:00,
2013-03-13 21:01:00,60.0,39.2,30.12,NNW,334,0.0,0.0,46,0.00,,---,0.00,VWS V14.00,2013-03-14 01:01:00,
2013-03-13 21:06:00,59.6,39.4,30.13,NNW,335,0.0,0.0,47,0.00,,---,0.00,VWS V14.00,2013-03-14 01:06:00,
2013-03-13 21:11:00,59.2,39.5,30.13,NNW,335,0.0,0.0,48,0.00,,---,0.00,VWS V14.00,2013-03-14 01:11:00,
2013-03-13 21:16:00,59.0,40.9,30.13,NNW,335,0.0,0.0,51,0.00,,---,0.00,VWS V14.00,2013-03-14 01:16:00,
2013-03-13 21:21:00,59.0,41.4,30.14,NNW,335,0.0,0.0,52,0.00,,---,0.00,VWS V14.00,2013-03-14 01:21:00,
2013-03-13 21:27:00,58.8,41.2,30.14,NW,317,0.0,0.0,52,0.00,,---,0.00,VWS V14.00,2013-03-14 01:27:00,
2013-03-13 21:30:00,59.0,41.4,30.14,SW,224,2.0,3.0,52,0.00,,---,0.00,VWS V14.00,2013-03-14 01:30:00,
2013-03-13 21:32:00,59.0,41.4,30.14,WSW,241,0.0,5.0,52,0.00,,---,0.00,VWS V14.00,2013-03-14 01:32:00,
2013-03-13 21:37:00,59.6,41.5,30.14,SW,225,0.0,5.0,51,0.00,,---,0.00,VWS V14.00,2013-03-14 01:37:00,
2013-03-13 21:42:00,60.0,41.3,30.14,SW,225,0.0,5.0,50,0.00,,---,0.00,VWS V14.00,2013-03-14 01:42:00,
2013-03-13 21:47:00,59.9,41.8,30.14,SW,225,0.0,5.0,51,0.00,,---,0.00,VWS V14.00,2013-03-14 01:47:00,
2013-03-13 21:53:00,59.5,41.4,30.15,SW,225,0.0,5.0,51,0.00,,---,0.00,VWS V14.00,2013-03-14 01:53:00,
2013-03-13 21:58:00,59.0,41.9,30.15,SW,225,0.0,5.0,53,0.00,,---,0.00,VWS V14.00,2013-03-14 01:58:00,
2013-03-13 22:00:00,59.0,41.9,30.15,SW,225,0.0,5.0,53,0.00,,---,0.00,VWS V14.00,2013-03-14 02:00:00,
2013-03-13 22:03:00,58.9,41.8,30.15,SW,225,0.0,0.0,53,0.00,,---,0.00,VWS V14.00,2013-03-14 02:03:00,
2013-03-13 22:08:00,58.5,41.9,30.15,SW,225,0.0,0.0,54,0.00,,---,0.00,VWS V14.00,2013-03-14 02:08:00,
2013-03-13 22:13:00,58.1,42.0,30.15,SW,225,0.0,0.0,55,0.00,,---,0.00,VWS V14.00,2013-03-14 02:13:00,
2013-03-13 22:18:00,57.7,42.1,30.15,SW,225,0.0,0.0,56,0.00,,---,0.00,VWS V14.00,2013-03-14 02:18:00,
2013-03-13 22:23:00,57.5,41.9,30.15,SW,225,0.0,0.0,56,0.00,,---,0.00,VWS V14.00,2013-03-14 02:23:00,
2013-03-13 22:28:00,57.4,42.3,30.16,SW,225,0.0,0.0,57,0.00,,---,0.00,VWS V14.00,2013-03-14 02:28:00,
2013-03-13 22:30:00,57.3,42.2,30.16,SW,225,0.0,0.0,57,0.00,,---,0.00,VWS V14.00,2013-03-14 02:30:00,
2013-03-13 22:34:00,57.1,42.0,30.16,SW,225,0.0,0.0,57,0.00,,---,0.00,VWS V14.00,2013-03-14 02:34:00,
2013-03-13 22:39:00,56.8,42.2,30.16,SW,225,0.0,0.0,58,0.00,,---,0.00,VWS V14.00,2013-03-14 02:39:00,
2013-03-13 22:44:00,56.6,42.0,30.16,SW,225,0.0,0.0,58,0.00,,---,0.00,VWS V14.00,2013-03-14 02:44:00,
2013-03-13 22:49:00,56.3,42.2,30.16,SW,225,0.0,0.0,59,0.00,,---,0.00,VWS V14.00,2013-03-14 02:49:00,
2013-03-13 22:54:00,56.0,42.3,30.16,SW,225,0.0,0.0,60,0.00,,---,0.00,VWS V14.00,2013-03-14 02:54:00,
2013-03-13 23:00:00,55.8,42.6,30.17,SW,225,0.0,0.0,61,0.00,,---,0.00,VWS V14.00,2013-03-14 03:00:00,
2013-03-13 23:05:00,55.4,42.2,30.17,SW,225,0.0,0.0,61,0.00,,---,0.00,VWS V14.00,2013-03-14 03:05:00,
2013-03-13 23:10:00,55.0,42.7,30.17,SW,225,0.0,0.0,63,0.00,,---,0.00,VWS V14.00,2013-03-14 03:10:00,
2013-03-13 23:15:00,54.6,42.3,30.17,SW,225,0.0,0.0,63,0.00,,---,0.00,VWS V14.00,2013-03-14 03:15:00,
2013-03-13 23:20:00,54.2,42.7,30.17,SW,225,0.0,0.0,65,0.00,,---,0.00,VWS V14.00,2013-03-14 03:20:00,
2013-03-13 23:27:00,53.9,42.4,30.18,SW,225,0.0,0.0,65,0.00,,---,0.00,VWS V14.00,2013-03-14 03:27:00,
2013-03-13 23:30:00,53.7,42.6,30.18,SW,225,0.0,0.0,66,0.00,,---,0.00,VWS V14.00,2013-03-14 03:30:00,
2013-03-13 23:32:00,53.6,42.5,30.18,SW,225,0.0,0.0,66,0.00,,---,0.00,VWS V14.00,2013-03-14 03:32:00,
2013-03-13 23:38:00,53.4,42.7,30.18,SW,225,0.0,0.0,67,0.00,,---,0.00,VWS V14.00,2013-03-14 03:38:00,
2013-03-13 23:43:00,53.1,42.5,30.18,SW,225,0.0,0.0,67,0.00,,---,0.00,VWS V14.00,2013-03-14 03:43:00,
2013-03-13 23:48:00,52.8,42.5,30.18,SW,225,0.0,0.0,68,0.00,,---,0.00,VWS V14.00,2013-03-14 03:48:00,
2013-03-13 23:53:00,52.4,42.5,30.18,SW,225,0.0,0.0,69,0.00,,---,0.00,VWS V14.00,2013-03-14 03:53:00,
2013-03-13 23:59:00,52.1,42.6,30.18,SW,225,0.0,0.0,70,0.00,,---,0.00,VWS V14.00,2013-03-14 03:59:00,